When you browse on this site, cookies collect data to enhance your experience and personalize the content and advertising you see.
Visit our Privacy Policy to learn more. By continuing to use the site, you agree to this use of cookies and data.
  • In Portugal
  • List of Countries
  • For 7 days
  • Water Temperature
  • Weather Map
  • Weather Widgets
  • user-avatar
    Login

    Hourly Weather Lisburn

    Today, 23 September, Monday

    Time Temperature Precipitation Wind Pressure Humidity
    00:00 +14°C° 0.1 mm 2 mps 748 mmHg 98%
    01:00 +14°C° 0 mm 2 mps 748 mmHg 98%
    02:00 +14°C° 0 mm 2 mps 748 mmHg 97%
    03:00 +14°C° 0 mm 2 mps 748 mmHg 97%
    04:00 +13°C° 0.1 mm 3 mps 748 mmHg 96%
    05:00 +12°C° 0.1 mm 4 mps 748 mmHg 94%
    06:00 +12°C° 0.1 mm 4 mps 748 mmHg 93%
    07:00 +12°C° 0.1 mm 4 mps 748 mmHg 92%
    08:00 +12°C° 0.1 mm 4 mps 748 mmHg 91%
    09:00 +12°C° 0.1 mm 4 mps 749 mmHg 90%
    10:00 +13°C° 0 mm 4 mps 748 mmHg 86%
    11:00 +14°C° 0 mm 5 mps 748 mmHg 81%
    12:00 +15°C° 0 mm 5 mps 748 mmHg 77%
    13:00 +15°C° 0.4 mm 6 mps 747 mmHg 83%
    14:00 +14°C° 0.4 mm 6 mps 747 mmHg 88%
    15:00 +14°C° 0.4 mm 7 mps 746 mmHg 94%
    16:00 +14°C° 1 mm 7 mps 746 mmHg 95%
    17:00 +14°C° 1 mm 7 mps 745 mmHg 95%
    18:00 +14°C° 1 mm 7 mps 745 mmHg 96%
    19:00 +14°C° 0.2 mm 6 mps 745 mmHg 96%
    20:00 +14°C° 0.2 mm 5 mps 745 mmHg 97%
    21:00 +14°C° 0.2 mm 4 mps 745 mmHg 97%
    22:00 +14°C° 0.2 mm 4 mps 745 mmHg 97%
    23:00 +14°C° 0.2 mm 4 mps 744 mmHg 97%

    Tomorrow, 24 September, Tuesday

    Time Temperature Precipitation Wind Pressure Humidity
    00:00 +14°C° 0.2 mm 4 mps 744 mmHg 96%
    01:00 +14°C° 0 mm 3 mps 744 mmHg 96%
    02:00 +14°C° 0 mm 3 mps 744 mmHg 97%
    03:00 +14°C° 0 mm 3 mps 744 mmHg 97%
    04:00 +14°C° 0.2 mm 3 mps 743 mmHg 97%
    05:00 +14°C° 0.2 mm 3 mps 743 mmHg 97%
    06:00 +14°C° 0.2 mm 3 mps 743 mmHg 98%
    07:00 +15°C° 0.4 mm 2 mps 743 mmHg 96%
    08:00 +15°C° 0.4 mm 2 mps 743 mmHg 95%
    09:00 +16°C° 0.4 mm 2 mps 743 mmHg 94%
    10:00 +17°C° 0.1 mm 2 mps 743 mmHg 89%
    11:00 +17°C° 0.1 mm 2 mps 742 mmHg 84%
    12:00 +18°C° 0.1 mm 2 mps 742 mmHg 80%
    13:00 +18°C° 0 mm 3 mps 742 mmHg 78%
    14:00 +18°C° 0 mm 3 mps 742 mmHg 77%
    15:00 +18°C° 0 mm 3 mps 741 mmHg 75%
    16:00 +17°C° 0 mm 3 mps 741 mmHg 81%
    17:00 +16°C° 0 mm 3 mps 741 mmHg 86%
    18:00 +15°C° 0 mm 2 mps 741 mmHg 91%
    19:00 +14°C° 0 mm 2 mps 741 mmHg 92%
    20:00 +13°C° 0 mm 2 mps 741 mmHg 93%
    21:00 +13°C° 0 mm 1 mps 741 mmHg 94%
    22:00 +12°C° 0 mm 1 mps 741 mmHg 94%
    23:00 +12°C° 0 mm 1 mps 741 mmHg 95%

    Day after tomorrow, 25 September, Wednesday

    Time Temperature Precipitation Wind Pressure Humidity
    00:00 +12°C° 0 mm 1 mps 741 mmHg 95%
    01:00 +12°C° 0 mm 1 mps 741 mmHg 95%
    02:00 +12°C° 0 mm 1 mps 742 mmHg 95%
    03:00 +11°C° 0 mm 1 mps 742 mmHg 95%
    04:00 +11°C° 0 mm 1 mps 742 mmHg 95%
    05:00 +11°C° 0 mm 1 mps 742 mmHg 95%
    06:00 +11°C° 0 mm 1 mps 743 mmHg 95%
    07:00 +12°C° 0 mm 1 mps 743 mmHg 93%
    08:00 +13°C° 0 mm 1 mps 744 mmHg 91%
    09:00 +14°C° 0 mm 1 mps 744 mmHg 89%
    10:00 +16°C° 0 mm 2 mps 744 mmHg 85%
    11:00 +17°C° 0 mm 2 mps 744 mmHg 81%
    12:00 +18°C° 0 mm 2 mps 745 mmHg 78%
    13:00 +18°C° 0.1 mm 3 mps 744 mmHg 78%
    14:00 +18°C° 0.1 mm 3 mps 744 mmHg 78%
    15:00 +18°C° 0.1 mm 4 mps 744 mmHg 79%
    16:00 +17°C° 0.2 mm 4 mps 743 mmHg 83%
    17:00 +15°C° 0.2 mm 4 mps 743 mmHg 88%
    18:00 +15°C° 0.2 mm 4 mps 742 mmHg 92%
    19:00 +15°C° 2.3 mm 5 mps 742 mmHg 94%
    20:00 +15°C° 2.3 mm 5 mps 741 mmHg 95%
    21:00 +15°C° 2.3 mm 6 mps 741 mmHg 97%
    22:00 +14°C° 0.3 mm 5 mps 741 mmHg 96%
    23:00 +14°C° 0.3 mm 5 mps 740 mmHg 95%

    26 September, Thursday

    Time Temperature Precipitation Wind Pressure Humidity
    00:00 +13°C° 0.3 mm 4 mps 740 mmHg 94%
    01:00 +13°C° 0 mm 4 mps 740 mmHg 94%
    02:00 +12°C° 0 mm 3 mps 741 mmHg 95%
    03:00 +12°C° 0 mm 3 mps 741 mmHg 95%
    04:00 +12°C° 0 mm 3 mps 741 mmHg 94%
    05:00 +11°C° 0 mm 3 mps 741 mmHg 93%
    06:00 +11°C° 0 mm 3 mps 741 mmHg 92%
    07:00 +11°C° 0 mm 4 mps 741 mmHg 91%
    08:00 +12°C° 0 mm 5 mps 741 mmHg 91%
    09:00 +12°C° 0 mm 5 mps 742 mmHg 91%
    10:00 +13°C° 0.1 mm 5 mps 742 mmHg 88%
    11:00 +13°C° 0.1 mm 6 mps 741 mmHg 86%
    12:00 +14°C° 0.1 mm 6 mps 741 mmHg 84%
    13:00 +14°C° 0.4 mm 6 mps 741 mmHg 83%
    14:00 +14°C° 0.4 mm 6 mps 741 mmHg 82%
    15:00 +14°C° 0.4 mm 6 mps 741 mmHg 81%
    16:00 +14°C° 0.1 mm 6 mps 741 mmHg 83%
    17:00 +13°C° 0.1 mm 5 mps 741 mmHg 85%
    18:00 +12°C° 0.1 mm 5 mps 741 mmHg 87%
    19:00 +10°C° 0 mm 5 mps 742 mmHg 88%
    20:00 +9°C° 0 mm 5 mps 742 mmHg 89%
    21:00 +9°C° 0 mm 5 mps 743 mmHg 90%
    22:00 +9°C° 0 mm 5 mps 743 mmHg 91%
    23:00 +9°C° 0 mm 5 mps 743 mmHg 92%

    27 September, Friday

    Time Temperature Precipitation Wind Pressure Humidity
    00:00 +9°C° 0 mm 5 mps 743 mmHg 93%
    01:00 +9°C° 0 mm 5 mps 742 mmHg 92%
    02:00 +9°C° 0 mm 5 mps 742 mmHg 92%
    03:00 +10°C° 0 mm 5 mps 742 mmHg 92%
    04:00 +10°C° 0.6 mm 5 mps 741 mmHg 92%
    05:00 +10°C° 0.6 mm 5 mps 741 mmHg 93%
    06:00 +10°C° 0.6 mm 6 mps 740 mmHg 94%
    07:00 +10°C° 0.5 mm 6 mps 740 mmHg 92%
    08:00 +11°C° 0.5 mm 6 mps 740 mmHg 90%
    09:00 +11°C° 0.5 mm 6 mps 739 mmHg 89%
    10:00 +13°C° 0.3 mm 6 mps 739 mmHg 87%
    11:00 +13°C° 0.3 mm 6 mps 740 mmHg 86%
    12:00 +14°C° 0.3 mm 6 mps 740 mmHg 84%
    13:00 +13°C° 0.9 mm 6 mps 740 mmHg 85%
    14:00 +11°C° 0.9 mm 7 mps 740 mmHg 86%
    15:00 +11°C° 0.9 mm 7 mps 740 mmHg 87%
    16:00 +11°C° 0.1 mm 7 mps 741 mmHg 88%
    17:00 +10°C° 0.1 mm 7 mps 741 mmHg 88%
    18:00 +10°C° 0.1 mm 7 mps 741 mmHg 88%
    19:00 +10°C° 0 mm 7 mps 742 mmHg 89%
    20:00 +10°C° 0 mm 7 mps 743 mmHg 89%
    21:00 +9°C° 0 mm 7 mps 743 mmHg 90%
    22:00 +9°C° 0 mm 7 mps 743 mmHg 90%
    23:00 +9°C° 0 mm 7 mps 744 mmHg 90%

    28 September, Saturday

    Time Temperature Precipitation Wind Pressure Humidity
    00:00 +9°C° 0 mm 6 mps 744 mmHg 90%
    01:00 +9°C° 0 mm 6 mps 744 mmHg 90%
    02:00 +9°C° 0 mm 6 mps 745 mmHg 90%
    03:00 +8°C° 0 mm 6 mps 745 mmHg 90%
    04:00 +8°C° 0 mm 6 mps 745 mmHg 91%
    05:00 +8°C° 0 mm 6 mps 745 mmHg 91%
    06:00 +8°C° 0 mm 6 mps 746 mmHg 92%
    07:00 +8°C° 0 mm 6 mps 746 mmHg 90%
    08:00 +9°C° 0 mm 6 mps 746 mmHg 87%
    09:00 +10°C° 0 mm 6 mps 747 mmHg 85%
    10:00 +12°C° 0 mm 5 mps 747 mmHg 82%
    11:00 +13°C° 0 mm 5 mps 747 mmHg 79%
    12:00 +14°C° 0 mm 5 mps 748 mmHg 75%
    13:00 +14°C° 0.1 mm 5 mps 748 mmHg 76%
    14:00 +14°C° 0.1 mm 5 mps 748 mmHg 76%
    15:00 +15°C° 0.1 mm 5 mps 748 mmHg 76%
    16:00 +13°C° 0.2 mm 4 mps 748 mmHg 81%
    17:00 +12°C° 0.2 mm 3 mps 748 mmHg 86%
    18:00 +12°C° 0.2 mm 2 mps 748 mmHg 91%
    19:00 +10°C° 0 mm 2 mps 748 mmHg 92%
    20:00 +10°C° 0 mm 2 mps 748 mmHg 93%
    21:00 +9°C° 0 mm 2 mps 748 mmHg 94%
    22:00 +9°C° 0 mm 2 mps 748 mmHg 94%
    23:00 +8°C° 0 mm 2 mps 748 mmHg 95%
    Show more